When you browse on this site, cookies collect data to enhance your experience and personalize the content and advertising you see.
Visit our Privacy Policy to learn more. By continuing to use the site, you agree to this use of cookies and data.

Meteo pe oră la Dziadkowo

Astăzi, 28 Septembrie, Luni

Timp Temperatura Precipitaţii Vânt Presiune Umiditate
00:00 +9°C° 0 mm 2 m/s 748 mmHg 86%
01:00 +9°C° 0 mm 3 m/s 748 mmHg 90%
02:00 +8°C° 0 mm 3 m/s 749 mmHg 90%
03:00 +8°C° 0 mm 3 m/s 749 mmHg 90%
04:00 +8°C° 0 mm 3 m/s 749 mmHg 90%
05:00 +8°C° 0 mm 3 m/s 749 mmHg 88%
06:00 +8°C° 0 mm 3 m/s 750 mmHg 87%
07:00 +8°C° 0 mm 3 m/s 751 mmHg 85%
08:00 +10°C° 0 mm 3 m/s 751 mmHg 79%
09:00 +12°C° 0 mm 3 m/s 751 mmHg 72%
10:00 +13°C° 0 mm 3 m/s 751 mmHg 66%
11:00 +14°C° 0 mm 3 m/s 751 mmHg 62%
12:00 +16°C° 0 mm 3 m/s 751 mmHg 59%
13:00 +17°C° 0 mm 4 m/s 751 mmHg 55%
14:00 +16°C° 0 mm 3 m/s 751 mmHg 59%
15:00 +14°C° 0 mm 3 m/s 751 mmHg 64%
16:00 +15°C° 0 mm 2 m/s 751 mmHg 68%
17:00 +14°C° 0 mm 2 m/s 751 mmHg 69%
18:00 +14°C° 0 mm 2 m/s 751 mmHg 69%
19:00 +14°C° 0 mm 2 m/s 751 mmHg 70%
20:00 +14°C° 0 mm 2 m/s 751 mmHg 71%
21:00 +14°C° 0 mm 2 m/s 751 mmHg 72%
22:00 +13°C° 0 mm 3 m/s 751 mmHg 72%
23:00 +13°C° 0 mm 3 m/s 751 mmHg 73%

Mâine, 29 Septembrie, Marţi

Timp Temperatura Precipitaţii Vânt Presiune Umiditate
00:00 +12°C° 0 mm 3 m/s 751 mmHg 74%
01:00 +12°C° 0 mm 3 m/s 751 mmHg 75%
02:00 +12°C° 0 mm 3 m/s 751 mmHg 76%
03:00 +12°C° 0 mm 3 m/s 751 mmHg 76%
04:00 +12°C° 0 mm 3 m/s 750 mmHg 77%
05:00 +12°C° 0 mm 3 m/s 750 mmHg 78%
06:00 +12°C° 0 mm 3 m/s 751 mmHg 78%
07:00 +12°C° 0 mm 4 m/s 751 mmHg 79%
08:00 +13°C° 0 mm 4 m/s 751 mmHg 75%
09:00 +14°C° 0 mm 4 m/s 751 mmHg 72%
10:00 +15°C° 0 mm 4 m/s 751 mmHg 68%
11:00 +17°C° 0 mm 4 m/s 751 mmHg 66%
12:00 +18°C° 0 mm 4 m/s 751 mmHg 63%
13:00 +19°C° 0 mm 4 m/s 751 mmHg 61%
14:00 +19°C° 0 mm 3 m/s 751 mmHg 62%
15:00 +18°C° 0 mm 3 m/s 751 mmHg 64%
16:00 +18°C° 0 mm 3 m/s 751 mmHg 65%
17:00 +17°C° 0 mm 3 m/s 751 mmHg 69%
18:00 +16°C° 0 mm 3 m/s 751 mmHg 73%
19:00 +14°C° 0 mm 3 m/s 751 mmHg 78%
20:00 +15°C° 0 mm 2 m/s 751 mmHg 79%
21:00 +15°C° 0 mm 2 m/s 751 mmHg 81%
22:00 +14°C° 0 mm 2 m/s 752 mmHg 82%
23:00 +14°C° 0 mm 2 m/s 752 mmHg 84%

Poimâine, 30 Septembrie, Miercuri

Timp Temperatura Precipitaţii Vânt Presiune Umiditate
00:00 +13°C° 0 mm 2 m/s 752 mmHg 86%
01:00 +13°C° 0 mm 2 m/s 752 mmHg 88%
02:00 +13°C° 0 mm 2 m/s 751 mmHg 89%
03:00 +13°C° 0 mm 2 m/s 751 mmHg 90%
04:00 +12°C° 0 mm 2 m/s 751 mmHg 91%
05:00 +12°C° 0 mm 2 m/s 751 mmHg 89%
06:00 +13°C° 0 mm 2 m/s 751 mmHg 88%
07:00 +13°C° 0 mm 2 m/s 751 mmHg 86%
08:00 +13°C° 0 mm 3 m/s 751 mmHg 79%
09:00 +14°C° 0 mm 3 m/s 751 mmHg 72%
10:00 +17°C° 0 mm 3 m/s 751 mmHg 65%
11:00 +18°C° 0 mm 3 m/s 751 mmHg 61%
12:00 +19°C° 0 mm 4 m/s 751 mmHg 56%
13:00 +19°C° 0 mm 4 m/s 750 mmHg 52%
14:00 +19°C° 0 mm 4 m/s 750 mmHg 54%
15:00 +19°C° 0 mm 4 m/s 750 mmHg 56%
16:00 +19°C° 0 mm 4 m/s 749 mmHg 58%
17:00 +17°C° 0 mm 4 m/s 750 mmHg 61%
18:00 +15°C° 0 mm 4 m/s 750 mmHg 65%
19:00 +14°C° 0 mm 4 m/s 750 mmHg 69%
20:00 +13°C° 0 mm 4 m/s 750 mmHg 73%
21:00 +13°C° 0 mm 3 m/s 750 mmHg 77%
22:00 +12°C° 0 mm 3 m/s 749 mmHg 81%
23:00 +12°C° 0 mm 3 m/s 749 mmHg 82%

1 Octombrie, Joi

Timp Temperatura Precipitaţii Vânt Presiune Umiditate
00:00 +12°C° 0 mm 3 m/s 749 mmHg 84%
01:00 +12°C° 0 mm 3 m/s 749 mmHg 86%
02:00 +12°C° 0 mm 3 m/s 748 mmHg 88%
03:00 +12°C° 0 mm 3 m/s 748 mmHg 89%
04:00 +11°C° 0 mm 3 m/s 748 mmHg 91%
05:00 +11°C° 0 mm 3 m/s 748 mmHg 91%
06:00 +11°C° 0 mm 3 m/s 747 mmHg 90%
07:00 +11°C° 0 mm 3 m/s 747 mmHg 90%
08:00 +13°C° 0 mm 3 m/s 747 mmHg 82%
09:00 +14°C° 0 mm 3 m/s 747 mmHg 73%
10:00 +16°C° 0 mm 3 m/s 747 mmHg 65%
11:00 +17°C° 0 mm 3 m/s 746 mmHg 62%
12:00 +18°C° 0 mm 3 m/s 746 mmHg 58%
13:00 +19°C° 0 mm 3 m/s 746 mmHg 54%
14:00 +19°C° 0 mm 3 m/s 745 mmHg 55%
15:00 +19°C° 0 mm 3 m/s 745 mmHg 57%
16:00 +19°C° 0 mm 3 m/s 745 mmHg 59%
17:00 +17°C° 0 mm 3 m/s 745 mmHg 63%
18:00 +16°C° 0 mm 3 m/s 746 mmHg 67%
19:00 +13°C° 0 mm 3 m/s 746 mmHg 71%
20:00 +13°C° 0 mm 3 m/s 746 mmHg 72%
21:00 +12°C° 0 mm 3 m/s 746 mmHg 73%
22:00 +13°C° 0 mm 2 m/s 746 mmHg 74%
23:00 +12°C° 0 mm 2 m/s 746 mmHg 77%

2 Octombrie, Vineri

Timp Temperatura Precipitaţii Vânt Presiune Umiditate
00:00 +12°C° 0 mm 2 m/s 746 mmHg 80%
01:00 +12°C° 0 mm 2 m/s 746 mmHg 83%
02:00 +12°C° 0 mm 2 m/s 746 mmHg 86%
03:00 +12°C° 0 mm 2 m/s 746 mmHg 89%
04:00 +10°C° 0 mm 2 m/s 746 mmHg 91%
05:00 +11°C° 0 mm 3 m/s 747 mmHg 92%
06:00 +11°C° 0 mm 3 m/s 747 mmHg 93%
07:00 +11°C° 0 mm 4 m/s 747 mmHg 94%
08:00 +12°C° 0 mm 4 m/s 747 mmHg 88%
09:00 +14°C° 0 mm 4 m/s 747 mmHg 83%
10:00 +16°C° 0 mm 5 m/s 747 mmHg 77%
11:00 +16°C° 0 mm 5 m/s 747 mmHg 74%
12:00 +17°C° 0 mm 5 m/s 747 mmHg 71%
13:00 +19°C° 0 mm 5 m/s 747 mmHg 67%
14:00 +19°C° 0 mm 5 m/s 747 mmHg 68%
15:00 +17°C° 0 mm 5 m/s 747 mmHg 69%
16:00 +17°C° 0 mm 5 m/s 747 mmHg 70%
17:00 +17°C° 0 mm 4 m/s 747 mmHg 74%
18:00 +15°C° 0 mm 4 m/s 747 mmHg 79%
19:00 +14°C° 0 mm 3 m/s 748 mmHg 83%
20:00 +13°C° 0 mm 3 m/s 748 mmHg 85%
21:00 +13°C° 0 mm 3 m/s 748 mmHg 88%
22:00 +12°C° 0 mm 3 m/s 748 mmHg 90%
23:00 +12°C° 0 mm 4 m/s 747 mmHg 90%

3 Octombrie, Sâmbătă

Timp Temperatura Precipitaţii Vânt Presiune Umiditate
00:00 +12°C° 0 mm 4 m/s 747 mmHg 91%
01:00 +11°C° 0 mm 4 m/s 747 mmHg 91%
02:00 +10°C° 0 mm 5 m/s 747 mmHg 90%
03:00 +10°C° 0 mm 5 m/s 747 mmHg 88%
04:00 +10°C° 0 mm 5 m/s 747 mmHg 87%
05:00 +11°C° 0 mm 6 m/s 747 mmHg 88%
06:00 +11°C° 0 mm 6 m/s 747 mmHg 89%
07:00 +11°C° 0 mm 7 m/s 746 mmHg 90%
08:00 +12°C° 0 mm 7 m/s 746 mmHg 83%
09:00 +15°C° 0 mm 8 m/s 746 mmHg 75%
10:00 +16°C° 0 mm 8 m/s 746 mmHg 68%
11:00 +17°C° 0 mm 8 m/s 746 mmHg 68%
12:00 +18°C° 0 mm 8 m/s 746 mmHg 67%
13:00 +18°C° 0 mm 8 m/s 746 mmHg 66%
14:00 +18°C° 0 mm 8 m/s 746 mmHg 66%
15:00 +18°C° 0 mm 7 m/s 746 mmHg 67%
16:00 +18°C° 0 mm 7 m/s 746 mmHg 67%
17:00 +17°C° 0 mm 7 m/s 746 mmHg 69%
18:00 +17°C° 0 mm 7 m/s 746 mmHg 72%
19:00 +16°C° 0 mm 7 m/s 746 mmHg 75%
20:00 +16°C° 0 mm 7 m/s 746 mmHg 76%
21:00 +15°C° 0 mm 7 m/s 746 mmHg 77%
22:00 +15°C° 0 mm 7 m/s 746 mmHg 78%
23:00 +15°C° 0 mm 7 m/s 746 mmHg 78%
Arată mai mult